Vauxhall, Alberta

7:48 AM MST on February 25, 2018 (GMT -0700)
Vauxhall

Weather History for 71251 - May, 2013

Change the Weather History Date:

Tuesday, May 21, 2013

  Actual Average Record
Temperature  
Mean Temperature 58 °F -  
Max Temperature 74 °F - - ()
Min Temperature 41 °F - - ()
Degree Days  
Heating Degree Days 8    
Growing Degree Days 8 (Base 50)    
Moisture  
Dew Point 32 °F    
Average Humidity 45    
Maximum Humidity 93    
Minimum Humidity 7    
Precipitation  
Precipitation 0.09 in - - ()
Sea Level Pressure  
Sea Level Pressure 30.00 in    
Wind  
Wind Speed 9 mph ()    
Max Wind Speed 22 mph    
Max Gust Speed -    
T = Trace of Precipitation, MM = Missing Value Source: Averaged Metar Reports

Daily Weather History Graph

Daily Weather History Graph

Search for Another Location

Airport or City:

Trip Planner

Search our weather history database for the weather conditions in past years. The results will help you decide how hot, cold, wet, or windy it might be!

Date:

Astronomy

May. 21, 2013 Rise Set
Actual Time 5:34 AM MDT 9:16 PM MDT
Civil Twilight 4:53 AM MDT 9:57 PM MDT
Nautical Twilight 3:57 AM MDT 10:53 PM MDT
Astronomical Twilight 2:35 AM MDT 12:18 AM MDT
Moon 5:14 PM MDT (5/21) 3:28 AM MDT (5/21)
Length of Visible Light 17h 04m
Length of Day
15h 42m
Waxing Gibbous, 84% of the Moon is Illuminated
May 21
Waxing Gibbous
May 24
Full
May 31
Last Quarter
Jun 8
New
Jun 16
First Quarter

Hourly Weather History & Observations

Time (MDT) Temp. Windchill Dew Point Humidity Pressure Visibility Wind Dir Wind Speed Gust Speed Precip Events Conditions
12:00 AM 52 °F - 45 °F 69% 30.11 in - East 1.2 mph - -  
12:00 AM 51.8 °F - 44.6 °F 76% 30.11 in - East 1.2 mph - N/A   Unknown
2:00 AM 44.6 °F - 41.0 °F 87% 30.09 in - East 1.2 mph - N/A   Unknown
3:00 AM 44.6 °F 41.4 °F 41.0 °F 87% 30.07 in - ESE 5.8 mph - N/A   Unknown
4:00 AM 42.8 °F 40.1 °F 39.2 °F 87% 30.07 in - SE 4.6 mph - N/A   Unknown
5:00 AM 41.0 °F 37.1 °F 39.2 °F 93% 30.06 in - ESE 5.8 mph - N/A   Unknown
6:00 AM 42 °F - 39 °F 87% 30.06 in - SE 6.9 mph - -  
6:00 AM 42.8 °F 38.6 °F 39.2 °F 87% 30.06 in - SE 6.9 mph - N/A   Unknown
7:00 AM 44.6 °F 40.7 °F 39.2 °F 81% 30.06 in - ESE 6.9 mph - N/A   Unknown
8:00 AM 50.0 °F - 39.2 °F 66% 30.04 in - SE 10.4 mph - N/A   Unknown
9:00 AM 57.2 °F - 41.0 °F 55% 30.04 in - SE 11.5 mph - N/A   Unknown
10:00 AM 64.4 °F - 42.8 °F 45% 30.02 in - SSE 17.3 mph - N/A   Unknown
11:00 AM 68.0 °F - 33.8 °F 28% 30.01 in - SE 20.7 mph - N/A   Unknown
12:00 PM 70 °F - 28 °F 11% 30.00 in - SE 18.4 mph - -  
12:00 PM 69.8 °F - 28.4 °F 21% 30.00 in - SE 18.4 mph - N/A   Unknown
1:00 PM 71.6 °F - 23.0 °F 16% 29.99 in - SE 17.3 mph - N/A   Unknown
2:00 PM 73.4 °F - 23.0 °F 15% 29.97 in - SE 18.4 mph - N/A   Unknown
3:00 PM 73.4 °F - 26.6 °F 18% 29.96 in - SE 20.7 mph - N/A   Unknown
4:00 PM 73.4 °F - 21.2 °F 14% 29.94 in - ESE 20.7 mph - N/A   Unknown
5:00 PM 73.4 °F - 24.8 °F 16% 29.93 in - ESE 20.7 mph - N/A   Unknown
6:00 PM 72 °F - 21 °F 7% 29.91 in - ESE 21.9 mph - -  
6:00 PM 73.4 °F - 21.2 °F 14% 29.91 in - ESE 21.9 mph - N/A   Unknown
7:00 PM 68.0 °F - 21.2 °F 17% 29.91 in - ESE 21.9 mph - N/A   Unknown
8:00 PM 66.2 °F - 24.8 °F 21% 29.91 in - ESE 16.1 mph - N/A   Unknown
9:00 PM 62.6 °F - 28.4 °F 27% 29.91 in - ESE 11.5 mph - N/A   Unknown
10:00 PM 57.2 °F - 24.8 °F 29% 29.92 in - East 6.9 mph - N/A   Unknown
11:00 PM 55.4 °F - 24.8 °F 31% 29.93 in - ESE 8.1 mph - N/A   Unknown